Location: Utrecht
(52.0907°N, 5.1214°E)
Time: 09:29:45
(UTC+02:00)

MOZHAYETS 4 - Pass Details

Date: 30 June 2022
Orbit: 660 x 678 km, 98.2° (Epoch: 17 August)

Event Time Altitude Azimuth Distance (km) Brightness Sun altitude
Exits shadow 04:05:20 - 174° (S) 2,605 10.3 -8.6°
Reaches altitude 10° 04:06:34 10° 177° (S) 2,110 9.8 -8.5°
Maximum altitude 04:11:08 62° 258° (WSW) 764 7.8 -8.1°
Drops below altitude 10° 04:15:44 10° 339° (NNW) 2,116 10.8 -7.7°
Sets 04:18:00 0° 343° (NNW) 3,032 11.7 -7.5°
